Torna al catalogo

FENGYUN 1C DEB

AttivoSSO
NORAD 31455·DEBRIS·🇨🇳 China

Lanciato May 10, 1999 da Taiyuan Satellite Launch Center

Loading…

Prossimi Passaggi (prossime 24 ore)

TLE

AggiornatoSource: Space-Track

Epoca: Sep 14, 2026, 05:05 UTC

1 31455U 99025BUT 26257.21218518  .00000373  00000-0  18355-3 0  9991
2 31455  98.6003 238.9111 0216925 345.2143  14.2750 14.11718050999901

Traccia FENGYUN 1C DEB in tempo reale con AllMySat

Download on the App Store